Location: Unspecified
(0.0000°N, 1.0000°E)
Time: 00:44:13
(UTC+01:00)

X-37B - Pass Details

Date: 25 September 2020
Orbit: 382 x 392 km, 45.0° (Epoch: 15 October)

Event Time Altitude Azimuth Distance (km) Brightness Sun altitude
Rises 21:22:58 0° 238° (WSW) 2,261 5.4 -23.9°
Reaches altitude 10° 21:25:12 10° 250° (WSW) 1,403 4.3 -24.4°
Enters shadow 21:27:24 26° 291° (WNW) 785 2.7 -25.0°
